TimeCST,TemperatureF,Dew PointF,Humidity,Sea Level PressureIn,VisibilityMPH,Wind Direction,Wind SpeedMPH,Gust SpeedMPH,PrecipitationIn,Events,Conditions,WindDirDegrees,DateUTC
12:00 AM,66,54,56,29.92,12,SW,4.6,,,,Overcast,220,2012-11-23 06:00:00
12:00 AM,66.2,53.6,64,30.07,6.2,SW,4.6,-,N/A,,Mostly Cloudy,220,2012-11-23 06:00:00
12:11 AM,66.2,55.4,68,30.06,6.2,East,10.4,-,N/A,,Mostly Cloudy,90,2012-11-23 06:11:00
1:00 AM,66.2,55.4,68,30.04,-9999.0,East,11.5,24.2,N/A,,Mostly Cloudy,100,2012-11-23 07:00:00
2:00 AM,66.2,55.4,68,30.01,6.2,East,12.7,26.5,N/A,,Mostly Cloudy,90,2012-11-23 08:00:00
3:00 AM,66,56,61,29.86,12,East,10.4,,,,Scattered Clouds,90,2012-11-23 09:00:00
3:00 AM,66.2,55.4,68,30.00,6.2,East,10.4,-,N/A,,Mostly Cloudy,90,2012-11-23 09:00:00
4:00 AM,66.2,55.4,68,30.00,6.2,East,15.0,28.8,N/A,,Scattered Clouds,100,2012-11-23 10:00:00
5:00 AM,66.2,55.4,68,30.01,6.2,ESE,13.8,-,N/A,,Scattered Clouds,110,2012-11-23 11:00:00
6:00 AM,67,55,57,29.90,12,East,9.2,,,,Mostly Cloudy,100,2012-11-23 12:00:00
6:00 AM,66.2,55.4,68,30.03,-9999.0,East,9.2,-,N/A,,Clear,100,2012-11-23 12:00:00
7:00 AM,68.0,57.2,68,30.05,-9999.0,East,11.5,-,N/A,,Clear,100,2012-11-23 13:00:00
8:00 AM,69.8,57.2,64,30.07,-9999.0,East,11.5,-,N/A,,Clear,90,2012-11-23 14:00:00
9:00 AM,74,60,51,29.92,12,East,10.4,,,,Partly Cloudy,100,2012-11-23 15:00:00
9:00 AM,73.4,59.0,61,30.05,-9999.0,East,10.4,-,N/A,,Clear,100,2012-11-23 15:00:00
10:00 AM,77.0,59.0,54,30.05,6.2,East,12.7,24.2,N/A,,Scattered Clouds,100,2012-11-23 16:00:00
11:00 AM,77.0,60.8,57,30.03,6.2,ESE,12.7,-,N/A,,Scattered Clouds,110,2012-11-23 17:00:00
12:00 PM,78,61,46,29.83,12,ESE,10.4,,,,Scattered Clouds,110,2012-11-23 18:00:00
12:00 PM,77.0,60.8,57,30.00,6.2,ESE,10.4,-,N/A,,Scattered Clouds,110,2012-11-23 18:00:00
1:00 PM,80.6,60.8,51,29.97,6.2,East,6.9,-,N/A,,Scattered Clouds,100,2012-11-23 19:00:00
2:00 PM,78.8,59.0,51,29.96,6.2,SSW,4.6,-,N/A,,Scattered Clouds,200,2012-11-23 20:00:00
3:00 PM,76,58,43,29.85,12,East,11.5,,,,Partly Cloudy,100,2012-11-23 21:00:00
3:00 PM,77.0,57.2,50,29.94,6.2,East,11.5,23.0,N/A,,Scattered Clouds,100,2012-11-23 21:00:00
4:00 PM,75.2,57.2,53,29.96,6.2,East,5.8,-,N/A,,Scattered Clouds,80,2012-11-23 22:00:00
5:00 PM,68.0,55.4,64,29.98,6.2,East,11.5,23.0,N/A,,Scattered Clouds,90,2012-11-23 23:00:00
6:00 PM,66,54,57,29.88,12,East,6.9,,,,Scattered Clouds,90,2012-11-24 00:00:00
6:00 PM,66.2,55.4,68,30.01,6.2,East,6.9,-,N/A,,Scattered Clouds,90,2012-11-24 00:00:00
7:00 PM,64.4,55.4,73,30.03,6.2,ESE,11.5,23.0,N/A,,Scattered Clouds,110,2012-11-24 01:00:00
8:00 PM,64.4,55.4,73,30.04,6.2,East,12.7,24.2,N/A,,Scattered Clouds,100,2012-11-24 02:00:00
9:00 PM,64,54,63,29.91,12,East,12.7,,,,Scattered Clouds,100,2012-11-24 03:00:00
9:00 PM,64.4,55.4,73,30.05,6.2,East,12.7,25.3,N/A,,Partly Cloudy,100,2012-11-24 03:00:00
10:00 PM,64.4,53.6,68,30.07,6.2,East,17.3,-,N/A,,Partly Cloudy,100,2012-11-24 04:00:00
11:00 PM,64.4,53.6,68,30.06,6.2,East,12.7,25.3,N/A,,Partly Cloudy,100,2012-11-24 05:00:00